Location: Killam
(52.7910°N, 111.8608°W)
Time: 22:19:29
(UTC+00:00)

A-11 Canister half - Pass Details

Date: 21 February 2026
Orbit: 1525 x 1683 km, 47.3° (Epoch: 5 March)

Event Time Altitude Azimuth Distance (km) Brightness Sun altitude
Rises 02:17:13 0° 265° (W) 4,699 13.5 -13.9°
Reaches altitude 10° 02:20:18 10° 262° (W) 3,705 12.4 -14.3°
Maximum altitude 02:29:26 63° 185° (S) 1,675 9.2 -15.7°
Enters shadow 02:36:06 21° 111° (ESE) 2,949 9.9 -16.7°
Drops below altitude 10° 02:38:34 10° 107° (ESE) 3,707 - -17.1°
Sets 02:41:39 0° 105° (ESE) 4,702 - -17.6°
